Terminal Aerodrome Forecast
Issued by NWS Grand Forks, ND

Home | Current Version | Previous Version | Text Only | Print | Product List | Glossary On
Versions: 1 2 3 4 5 6 7 8 9 10 11 12 13 14 15 16 17 18 19
000
FTUS43 KFGF 230428 AAB
TAFGFK
TAF AMD
KGFK 230428Z 2304/2324 29014G20KT P6SM BKN100
     FM230700 29015KT P6SM BKN090
     FM231200 31018G24KT P6SM BKN025
     FM231600 31019G27KT P6SM BKN035=

USA.gov is the U.S. government's official web portal to all federal, state and local government web resources and services.